• In Hungary
  • List of Countries
  • For 7 days
  • Water Temperature
  • Satellite Maps
  • Weather Map
  • News
  • Weather Widgets
  • user-avatar
    Login

    Hourly Weather Torrington

    Today, 25 September, Tuesday

    Time Temperature Precipitation Wind Pressure Humidity
    00:00 +9°C° 0 mm 3 mps 755 mmHg 86%
    01:00 +9°C° 0 mm 2 mps 755 mmHg 84%
    02:00 +9°C° 0.3 mm 3 mps 754 mmHg 86%
    03:00 +9°C° 0.3 mm 3 mps 754 mmHg 87%
    04:00 +9°C° 0.3 mm 3 mps 754 mmHg 89%
    05:00 +9°C° 2.7 mm 3 mps 753 mmHg 92%
    06:00 +9°C° 2.7 mm 3 mps 753 mmHg 94%
    07:00 +9°C° 0 mm 2 mps 753 mmHg 96%
    08:00 +10°C° 4.6 mm 3 mps 753 mmHg 97%
    09:00 +11°C° 4.6 mm 3 mps 752 mmHg 97%
    10:00 +11°C° 4.6 mm 3 mps 752 mmHg 98%
    11:00 +13°C° 4.2 mm 3 mps 751 mmHg 98%
    12:00 +14°C° 4.2 mm 3 mps 750 mmHg 98%
    13:00 +16°C° 4.2 mm 3 mps 750 mmHg 99%
    14:00 +17°C° 3.2 mm 3 mps 749 mmHg 99%
    15:00 +18°C° 3.2 mm 3 mps 748 mmHg 98%
    16:00 +19°C° 3.2 mm 2 mps 748 mmHg 98%
    17:00 +19°C° 0.5 mm 2 mps 748 mmHg 98%
    18:00 +19°C° 0.5 mm 2 mps 747 mmHg 99%
    19:00 +19°C° 0.5 mm 2 mps 747 mmHg 99%
    20:00 +19°C° 0 mm 2 mps 747 mmHg 99%
    21:00 +19°C° 0 mm 2 mps 747 mmHg 99%
    22:00 +19°C° 0 mm 2 mps 746 mmHg 99%
    23:00 +19°C° 0 mm 2 mps 746 mmHg 99%

    Tomorrow, 26 September, Wednesday

    Time Temperature Precipitation Wind Pressure Humidity
    00:00 +20°C° 0 mm 2 mps 746 mmHg 99%
    01:00 +20°C° 0 mm 2 mps 745 mmHg 99%
    02:00 +20°C° 0.1 mm 2 mps 745 mmHg 99%
    03:00 +20°C° 0.1 mm 2 mps 744 mmHg 99%
    04:00 +21°C° 0.1 mm 2 mps 744 mmHg 99%
    05:00 +21°C° 0 mm 2 mps 743 mmHg 99%
    06:00 +21°C° 0 mm 2 mps 743 mmHg 99%
    07:00 +21°C° 0 mm 2 mps 743 mmHg 99%
    08:00 +22°C° 0 mm 3 mps 743 mmHg 97%
    09:00 +24°C° 0 mm 3 mps 742 mmHg 95%
    10:00 +24°C° 0 mm 3 mps 742 mmHg 93%
    11:00 +26°C° 0 mm 3 mps 741 mmHg 86%
    12:00 +27°C° 0 mm 4 mps 741 mmHg 79%
    13:00 +28°C° 0 mm 4 mps 740 mmHg 72%
    14:00 +28°C° 0.4 mm 4 mps 740 mmHg 76%
    15:00 +27°C° 0.4 mm 3 mps 739 mmHg 79%
    16:00 +27°C° 0.4 mm 3 mps 739 mmHg 83%
    17:00 +25°C° 1.8 mm 3 mps 739 mmHg 87%
    18:00 +24°C° 1.8 mm 3 mps 739 mmHg 92%
    19:00 +23°C° 1.8 mm 2 mps 739 mmHg 96%
    20:00 +21°C° 0.3 mm 3 mps 740 mmHg 95%
    21:00 +19°C° 0.3 mm 4 mps 740 mmHg 94%
    22:00 +18°C° 0.3 mm 4 mps 741 mmHg 93%
    23:00 +17°C° 0 mm 4 mps 741 mmHg 88%

    Day after tomorrow, 27 September, Thursday

    Time Temperature Precipitation Wind Pressure Humidity
    00:00 +14°C° 0 mm 4 mps 742 mmHg 84%
    01:00 +12°C° 0 mm 4 mps 742 mmHg 80%
    02:00 +12°C° 0 mm 4 mps 743 mmHg 77%
    03:00 +12°C° 0 mm 3 mps 743 mmHg 75%
    04:00 +12°C° 0 mm 3 mps 744 mmHg 73%
    05:00 +12°C° 0 mm 3 mps 744 mmHg 74%
    06:00 +13°C° 0 mm 2 mps 745 mmHg 75%
    07:00 +12°C° 0 mm 2 mps 746 mmHg 76%
    08:00 +14°C° 0 mm 2 mps 746 mmHg 71%
    09:00 +15°C° 0 mm 2 mps 746 mmHg 65%
    10:00 +16°C° 0 mm 2 mps 747 mmHg 60%
    11:00 +19°C° 0 mm 1 mps 747 mmHg 56%
    12:00 +20°C° 0 mm 1 mps 747 mmHg 52%
    13:00 +21°C° 0 mm 1 mps 747 mmHg 48%
    14:00 +20°C° 0 mm 1 mps 746 mmHg 51%
    15:00 +20°C° 0 mm 1 mps 746 mmHg 54%
    16:00 +20°C° 0 mm 1 mps 746 mmHg 57%
    17:00 +18°C° 0 mm 1 mps 746 mmHg 61%
    18:00 +15°C° 0 mm 1 mps 746 mmHg 65%
    19:00 +14°C° 0 mm 1 mps 747 mmHg 69%
    20:00 +13°C° 0 mm 1 mps 747 mmHg 71%
    21:00 +13°C° 0 mm 1 mps 747 mmHg 74%
    22:00 +13°C° 0 mm 1 mps 747 mmHg 77%
    23:00 +13°C° 0 mm 1 mps 747 mmHg 77%

    28 September, Friday

    Time Temperature Precipitation Wind Pressure Humidity
    00:00 +13°C° 0 mm 1 mps 747 mmHg 78%
    01:00 +13°C° 0 mm 1 mps 747 mmHg 79%
    02:00 +12°C° 0 mm 1 mps 746 mmHg 79%
    03:00 +12°C° 0 mm 1 mps 746 mmHg 80%
    04:00 +12°C° 0 mm 1 mps 746 mmHg 80%
    05:00 +12°C° 0.1 mm 1 mps 746 mmHg 81%
    06:00 +12°C° 0.1 mm 1 mps 746 mmHg 82%
    07:00 +12°C° 0.1 mm 1 mps 746 mmHg 83%
    08:00 +13°C° 0 mm 1 mps 746 mmHg 81%
    09:00 +14°C° 0 mm 1 mps 746 mmHg 79%
    10:00 +15°C° 0 mm 1 mps 746 mmHg 77%
    11:00 +15°C° 0 mm 1 mps 745 mmHg 77%
    12:00 +15°C° 0 mm 1 mps 745 mmHg 78%
    13:00 +15°C° 0 mm 1 mps 745 mmHg 78%
    14:00 +16°C° 0 mm 1 mps 744 mmHg 78%
    15:00 +18°C° 0 mm 1 mps 744 mmHg 78%
    16:00 +18°C° 0 mm 1 mps 744 mmHg 79%
    17:00 +16°C° 0 mm 1 mps 744 mmHg 84%
    18:00 +15°C° 0 mm 1 mps 744 mmHg 90%
    19:00 +14°C° 0 mm 1 mps 744 mmHg 95%
    20:00 +14°C° 0 mm 1 mps 744 mmHg 96%
    21:00 +14°C° 0 mm 1 mps 744 mmHg 97%
    22:00 +14°C° 0 mm 1 mps 743 mmHg 97%
    23:00 +14°C° 0 mm 1 mps 743 mmHg 98%

    29 September, Saturday

    Time Temperature Precipitation Wind Pressure Humidity
    00:00 +14°C° 0 mm 1 mps 743 mmHg 98%
    01:00 +13°C° 0 mm 1 mps 743 mmHg 98%
    02:00 +13°C° 0 mm 1 mps 743 mmHg 98%
    03:00 +13°C° 0 mm 1 mps 743 mmHg 98%
    04:00 +13°C° 0 mm 1 mps 743 mmHg 97%
    05:00 +13°C° 0 mm 1 mps 744 mmHg 96%
    06:00 +13°C° 0 mm 1 mps 744 mmHg 95%
    07:00 +13°C° 0 mm 2 mps 745 mmHg 93%
    08:00 +14°C° 0 mm 2 mps 745 mmHg 80%
    09:00 +16°C° 0 mm 3 mps 746 mmHg 67%
    10:00 +17°C° 0 mm 4 mps 746 mmHg 54%
    11:00 +17°C° 0 mm 4 mps 746 mmHg 51%
    12:00 +18°C° 0 mm 4 mps 746 mmHg 48%
    13:00 +18°C° 0 mm 4 mps 746 mmHg 45%
    14:00 +18°C° 0 mm 4 mps 746 mmHg 47%
    15:00 +17°C° 0 mm 4 mps 746 mmHg 49%
    16:00 +17°C° 0 mm 3 mps 746 mmHg 51%
    17:00 +14°C° 0 mm 3 mps 747 mmHg 57%
    18:00 +13°C° 0 mm 2 mps 747 mmHg 64%
    19:00 +10°C° 0 mm 2 mps 748 mmHg 70%
    20:00 +9°C° 0 mm 2 mps 748 mmHg 72%
    21:00 +8°C° 0 mm 2 mps 748 mmHg 74%
    22:00 +8°C° 0 mm 2 mps 749 mmHg 76%
    23:00 +7°C° 0 mm 2 mps 749 mmHg 77%

    30 September, Sunday

    Time Temperature Precipitation Wind Pressure Humidity
    00:00 +8°C° 0 mm 1 mps 749 mmHg 79%
    01:00 +7°C° 0 mm 1 mps 749 mmHg 81%
    02:00 +7°C° 0 mm 1 mps 749 mmHg 82%
    03:00 +6°C° 0 mm 1 mps 750 mmHg 82%
    04:00 +6°C° 0 mm 1 mps 750 mmHg 83%
    05:00 +7°C° 0 mm 1 mps 750 mmHg 80%
    06:00 +7°C° 0 mm 1 mps 751 mmHg 77%
    07:00 +8°C° 0 mm 1 mps 751 mmHg 73%
    08:00 +10°C° 0 mm 0 mps 751 mmHg 64%
    09:00 +14°C° 0 mm 0 mps 751 mmHg 55%
    10:00 +17°C° 0 mm 0 mps 751 mmHg 45%
    11:00 +19°C° 0 mm 1 mps 751 mmHg 43%
    12:00 +19°C° 0 mm 1 mps 751 mmHg 41%
    13:00 +19°C° 0 mm 2 mps 751 mmHg 38%
    14:00 +18°C° 0 mm 2 mps 750 mmHg 42%
    15:00 +18°C° 0 mm 2 mps 750 mmHg 46%
    16:00 +18°C° 0 mm 2 mps 750 mmHg 49%
    17:00 +16°C° 0 mm 2 mps 750 mmHg 55%
    18:00 +14°C° 0 mm 1 mps 750 mmHg 61%
    19:00 +12°C° 0 mm 1 mps 751 mmHg 67%
    20:00 +12°C° 0 mm 1 mps 751 mmHg 69%
    21:00 +11°C° 0 mm 1 mps 751 mmHg 70%
    22:00 +11°C° 0 mm 1 mps 751 mmHg 71%
    23:00 +11°C° 0 mm 1 mps 751 mmHg 73%
    Show more